RYR363C LEMI-EGHH

Flight info

Callsign RYR363C
Flight time 2h 8m
Altitude 38000
Route ALT N851 MITOS N608 COMPI Y90 USKAR N863 GIROM DCT GONUP DCT MANAK DCT EPAPU UM184 EKRAS UT507 REVTU UY110 ORIST Y110 THRED
Aircraft B38M/M-SADE3FGILRWY/SB1

Departure

Time 2026-04-26 09:43
Airport Region of Murcia International Airport (LEMI)

Arrival

Time 2026-04-26 11:51
Airport Bournemouth Airport (EGHH)
Time Latitude Longitude Altitude Speed Heading
2026-04-26 09:30 37.80318 -1.13159 654 ft 0 kts 315°
2026-04-26 09:36 37.80317 -1.13159 654 ft 1 kts 315°
2026-04-26 09:36 37.80301 -1.13136 659 ft 4 kts 308°
2026-04-26 09:36 37.80286 -1.13108 654 ft 4 kts 293°
2026-04-26 09:36 37.80282 -1.13077 659 ft 4 kts 253°
2026-04-26 09:37 37.80287 -1.13065 654 ft 1 kts 225°
2026-04-26 09:39 37.80283 -1.13069 655 ft 3 kts 225°
2026-04-26 09:40 37.80239 -1.13126 657 ft 15 kts 225°
2026-04-26 09:40 37.80151 -1.13115 654 ft 15 kts 136°
2026-04-26 09:40 37.80057 -1.13105 656 ft 15 kts 224°
2026-04-26 09:40 37.79981 -1.13207 655 ft 17 kts 225°
2026-04-26 09:41 37.79893 -1.13318 657 ft 19 kts 225°
2026-04-26 09:41 37.79796 -1.13441 657 ft 21 kts 225°
2026-04-26 09:41 37.79689 -1.13577 657 ft 23 kts 226°
2026-04-26 09:41 37.79574 -1.13725 657 ft 25 kts 225°
2026-04-26 09:42 37.79451 -1.13839 656 ft 21 kts 178°
2026-04-26 09:42 37.79399 -1.13693 653 ft 22 kts 78°
2026-04-26 09:42 37.79559 -1.13440 654 ft 66 kts 45°
2026-04-26 09:42 37.80047 -1.12813 652 ft 131 kts 45°
2026-04-26 09:43 37.80801 -1.11845 802 ft 168 kts 47°
2026-04-26 09:43 37.81655 -1.10759 1445 ft 179 kts 46°
2026-04-26 09:43 37.82546 -1.09655 2303 ft 181 kts 44°
2026-04-26 09:43 37.83508 -1.08512 2869 ft 202 kts 44°
2026-04-26 09:44 37.84591 -1.07223 3347 ft 226 kts 45°
2026-04-26 09:44 37.85748 -1.05851 4103 ft 234 kts 45°
2026-04-26 09:44 37.86976 -1.04395 4702 ft 251 kts 45°
2026-04-26 09:44 37.88283 -1.02847 5347 ft 260 kts 45°
2026-04-26 09:45 37.89600 -1.01287 6218 ft 261 kts 45°
2026-04-26 09:45 37.90941 -0.99699 6975 ft 265 kts 45°
2026-04-26 09:45 37.92294 -0.98094 7740 ft 268 kts 45°
2026-04-26 09:45 37.93664 -0.96468 8508 ft 271 kts 45°
2026-04-26 09:46 37.95050 -0.94823 9312 ft 274 kts 45°
2026-04-26 09:46 37.96446 -0.93165 10151 ft 276 kts 46°
2026-04-26 09:46 37.97872 -0.91469 10682 ft 289 kts 46°
2026-04-26 09:46 37.99386 -0.89670 11058 ft 306 kts 45°
2026-04-26 09:47 38.00964 -0.87792 11581 ft 315 kts 45°
2026-04-26 09:47 38.02562 -0.85890 12329 ft 317 kts 45°
2026-04-26 09:47 38.04179 -0.83963 12990 ft 321 kts 45°
2026-04-26 09:47 38.05812 -0.82016 13668 ft 324 kts 45°
2026-04-26 09:48 38.07467 -0.80041 14291 ft 328 kts 45°
2026-04-26 09:48 38.09135 -0.78050 14874 ft 331 kts 45°
2026-04-26 09:48 38.10820 -0.76038 15492 ft 334 kts 45°
2026-04-26 09:48 38.12528 -0.74009 16098 ft 339 kts 45°
2026-04-26 09:49 38.14262 -0.71955 16722 ft 342 kts 45°
2026-04-26 09:49 38.16012 -0.69879 17322 ft 346 kts 45°
2026-04-26 09:49 38.17776 -0.67783 17906 ft 349 kts 45°
2026-04-26 09:49 38.19560 -0.65664 18452 ft 352 kts 44°
2026-04-26 09:50 38.21352 -0.63531 18951 ft 354 kts 44°
2026-04-26 09:50 38.23154 -0.61387 19413 ft 356 kts 45°
2026-04-26 09:50 38.24970 -0.59224 19858 ft 359 kts 45°
2026-04-26 09:50 38.26621 -0.56860 20273 ft 359 kts 59°
2026-04-26 09:51 38.27687 -0.53995 20704 ft 360 kts 67°
2026-04-26 09:51 38.28668 -0.51091 21084 ft 363 kts 68°
2026-04-26 09:51 38.29647 -0.48124 21502 ft 365 kts 68°
2026-04-26 09:51 38.30621 -0.45127 21901 ft 367 kts 68°
2026-04-26 09:52 38.31591 -0.42112 22286 ft 369 kts 68°
2026-04-26 09:52 38.33538 -0.36018 23024 ft 373 kts 68°
2026-04-26 09:52 38.34516 -0.32947 23382 ft 375 kts 69°
2026-04-26 09:53 38.35499 -0.29855 23738 ft 377 kts 68°
2026-04-26 09:53 38.36516 -0.26766 23999 ft 379 kts 68°
2026-04-26 09:53 38.37551 -0.23668 24282 ft 380 kts 68°
2026-04-26 09:53 38.38585 -0.20561 24563 ft 382 kts 68°
2026-04-26 09:54 38.39623 -0.17435 24834 ft 383 kts 68°
2026-04-26 09:54 38.40662 -0.14302 25097 ft 385 kts 68°
2026-04-26 09:54 38.41353 -0.12215 25268 ft 386 kts 68°
2026-04-26 09:54 38.42396 -0.09062 25522 ft 387 kts 68°
2026-04-26 09:55 38.43694 -0.06053 25762 ft 389 kts 53°
2026-04-26 09:55 38.45655 -0.03668 26022 ft 394 kts 36°
2026-04-26 09:55 38.48127 -0.02132 26289 ft 400 kts 19°
2026-04-26 09:55 38.50883 -0.01531 26566 ft 405 kts
2026-04-26 09:56 38.53707 -0.01419 26811 ft 408 kts
2026-04-26 09:56 38.56550 -0.01346 27042 ft 410 kts
2026-04-26 09:56 38.59408 -0.01303 27280 ft 411 kts
2026-04-26 09:56 38.62278 -0.01272 27505 ft 413 kts
2026-04-26 09:57 38.65156 -0.01246 27735 ft 415 kts
2026-04-26 09:57 38.68047 -0.01224 27921 ft 417 kts
2026-04-26 09:57 38.70956 -0.01204 28114 ft 418 kts
2026-04-26 09:57 38.73870 -0.01184 28323 ft 420 kts
2026-04-26 09:58 38.76795 -0.01164 28520 ft 421 kts
2026-04-26 09:58 38.79728 -0.01144 28715 ft 422 kts
2026-04-26 09:58 38.82675 -0.01125 28890 ft 424 kts
2026-04-26 09:58 38.85627 -0.01105 29072 ft 425 kts
2026-04-26 09:59 38.88588 -0.01086 29241 ft 426 kts
2026-04-26 09:59 38.91559 -0.01066 29386 ft 427 kts
2026-04-26 09:59 38.94536 -0.01047 29524 ft 429 kts
2026-04-26 09:59 38.97526 -0.01027 29675 ft 430 kts
2026-04-26 10:00 39.00518 -0.01007 29825 ft 431 kts
2026-04-26 10:00 39.03518 -0.00987 29958 ft 432 kts
2026-04-26 10:00 39.06537 -0.00967 30324 ft 433 kts
2026-04-26 10:00 39.09560 -0.00947 30655 ft 436 kts
2026-04-26 10:01 39.12601 -0.00927 30963 ft 438 kts
2026-04-26 10:01 39.15650 -0.00907 31325 ft 439 kts
2026-04-26 10:01 39.18711 -0.00886 31646 ft 441 kts
2026-04-26 10:01 39.21784 -0.00866 31958 ft 443 kts
2026-04-26 10:02 39.24870 -0.00845 32264 ft 444 kts
2026-04-26 10:02 39.27968 -0.00825 32586 ft 446 kts
2026-04-26 10:02 39.31037 -0.00804 32882 ft 448 kts
2026-04-26 10:02 39.34159 -0.00740 33172 ft 449 kts
2026-04-26 10:03 39.37195 0.00087 33475 ft 446 kts 19°
2026-04-26 10:03 39.40189 0.01171 33785 ft 447 kts 17°
2026-04-26 10:03 39.43190 0.02236 34173 ft 447 kts 18°
2026-04-26 10:03 39.46175 0.03320 34521 ft 446 kts 18°
2026-04-26 10:04 39.49158 0.04416 34815 ft 446 kts 18°
2026-04-26 10:04 39.52139 0.05516 35106 ft 446 kts 18°
2026-04-26 10:04 39.55124 0.06621 35393 ft 446 kts 17°
2026-04-26 10:04 39.58102 0.07724 35671 ft 446 kts 17°
2026-04-26 10:05 39.61085 0.08830 35991 ft 445 kts 17°
2026-04-26 10:05 39.64056 0.09932 36279 ft 444 kts 17°
2026-04-26 10:05 39.67032 0.11038 36537 ft 444 kts 17°
2026-04-26 10:05 39.70002 0.12142 36794 ft 444 kts 17°
2026-04-26 10:06 39.72977 0.13249 37048 ft 444 kts 17°
2026-04-26 10:06 39.75948 0.14356 37301 ft 445 kts 17°
2026-04-26 10:06 39.78923 0.15465 37541 ft 445 kts 17°
2026-04-26 10:06 39.81896 0.16574 37789 ft 444 kts 17°
2026-04-26 10:07 39.84861 0.17681 38085 ft 443 kts 17°
2026-04-26 10:07 39.87831 0.18792 38193 ft 445 kts 16°
2026-04-26 10:07 39.93753 0.21008 38174 ft 441 kts 17°
2026-04-26 10:08 39.99661 0.23223 38163 ft 442 kts 17°
2026-04-26 10:08 40.05564 0.25437 38163 ft 442 kts 17°
2026-04-26 10:09 40.11473 0.27657 38180 ft 442 kts 17°
2026-04-26 10:09 40.17380 0.29881 38180 ft 442 kts 17°
2026-04-26 10:10 40.23286 0.32108 38174 ft 442 kts 17°
2026-04-26 10:10 40.29201 0.34342 38173 ft 443 kts 17°
2026-04-26 10:11 40.35100 0.36580 38177 ft 445 kts 17°
2026-04-26 10:11 40.41044 0.38838 38168 ft 444 kts 17°
2026-04-26 10:12 40.46985 0.41100 38159 ft 444 kts 16°
2026-04-26 10:12 40.52932 0.43368 38166 ft 447 kts 17°
2026-04-26 10:13 40.58900 0.45649 38161 ft 447 kts 16°
2026-04-26 10:13 40.64866 0.47933 38160 ft 447 kts 16°
2026-04-26 10:14 40.70833 0.50221 38167 ft 447 kts 17°
2026-04-26 10:14 40.76802 0.52514 38157 ft 447 kts 17°
2026-04-26 10:15 40.82766 0.54810 38165 ft 447 kts 17°
2026-04-26 10:15 40.88688 0.57094 38154 ft 446 kts 17°
2026-04-26 10:16 40.94650 0.59398 38156 ft 446 kts 16°
2026-04-26 10:16 41.00614 0.61707 38164 ft 446 kts 16°
2026-04-26 10:17 41.06582 0.64021 38159 ft 446 kts 16°
2026-04-26 10:17 41.12542 0.66337 38164 ft 446 kts 16°
2026-04-26 10:18 41.18490 0.68653 38151 ft 445 kts 15°
2026-04-26 10:18 41.24426 0.70967 38165 ft 445 kts 16°
2026-04-26 10:19 41.30366 0.73288 38162 ft 445 kts 15°
2026-04-26 10:19 41.36298 0.75609 38169 ft 444 kts 15°
2026-04-26 10:20 41.41208 0.77535 38142 ft 442 kts 15°
2026-04-26 10:20 41.48130 0.80254 38147 ft 444 kts 15°
2026-04-26 10:21 41.54010 0.82569 38159 ft 444 kts 15°
2026-04-26 10:21 41.59922 0.84900 38165 ft 442 kts 15°
2026-04-26 10:22 41.65809 0.87226 38160 ft 441 kts 15°
2026-04-26 10:22 41.71695 0.89557 38162 ft 441 kts 15°
2026-04-26 10:23 41.77575 0.91890 38158 ft 441 kts 15°
2026-04-26 10:23 41.83456 0.94226 38157 ft 440 kts 15°
2026-04-26 10:24 41.89323 0.96563 38168 ft 440 kts 15°
2026-04-26 10:24 41.95190 0.98904 38167 ft 440 kts 15°
2026-04-26 10:25 42.01063 1.01251 38176 ft 440 kts 15°
2026-04-26 10:25 42.06937 1.03603 38165 ft 441 kts 15°
2026-04-26 10:26 42.12829 1.05923 38160 ft 440 kts 11°
2026-04-26 10:26 42.15853 1.06254 38158 ft 435 kts 355°
2026-04-26 10:26 42.18883 1.05984 38148 ft 438 kts 355°
2026-04-26 10:27 42.24962 1.05425 38168 ft 438 kts 355°
2026-04-26 10:27 42.31052 1.04785 38167 ft 438 kts 354°
2026-04-26 10:28 42.37091 1.04134 38173 ft 438 kts 354°
2026-04-26 10:28 42.43172 1.03475 38178 ft 439 kts 354°
2026-04-26 10:29 42.49256 1.02814 38172 ft 438 kts 354°
2026-04-26 10:29 42.55338 1.02151 38177 ft 438 kts 354°
2026-04-26 10:30 42.61421 1.01486 38172 ft 438 kts 354°
2026-04-26 10:30 42.67491 1.00821 38175 ft 437 kts 354°
2026-04-26 10:31 42.73553 1.00156 38191 ft 437 kts 354°
2026-04-26 10:31 42.79554 0.99014 38196 ft 434 kts 344°
2026-04-26 10:32 42.85388 0.97006 38183 ft 436 kts 345°
2026-04-26 10:32 42.91268 0.94982 38194 ft 436 kts 345°
2026-04-26 10:33 42.97149 0.92951 38196 ft 436 kts 345°
2026-04-26 10:33 43.03034 0.90914 38210 ft 436 kts 345°
2026-04-26 10:34 43.08884 0.88886 38193 ft 432 kts 345°
2026-04-26 10:34 43.14719 0.86859 38195 ft 433 kts 345°
2026-04-26 10:35 43.20557 0.84826 38198 ft 433 kts 345°
2026-04-26 10:35 43.26392 0.82791 38199 ft 432 kts 344°
2026-04-26 10:36 43.32219 0.80754 38199 ft 432 kts 344°
2026-04-26 10:36 43.38049 0.78712 38197 ft 432 kts 344°
2026-04-26 10:37 43.43879 0.76667 38207 ft 432 kts 345°
2026-04-26 10:37 43.49510 0.73854 38205 ft 431 kts 336°
2026-04-26 10:38 43.55035 0.70628 38200 ft 431 kts 336°
2026-04-26 10:38 43.60558 0.67376 38201 ft 431 kts 336°
2026-04-26 10:39 43.66076 0.64118 38201 ft 430 kts 336°
2026-04-26 10:39 43.71578 0.60864 38198 ft 430 kts 336°
2026-04-26 10:40 43.77075 0.57606 38204 ft 430 kts 336°
2026-04-26 10:40 43.82576 0.54339 38204 ft 430 kts 336°
2026-04-26 10:41 43.88071 0.51069 38204 ft 429 kts 336°
2026-04-26 10:41 43.93557 0.47797 38203 ft 429 kts 336°
2026-04-26 10:42 43.98117 0.45073 38207 ft 429 kts 336°
2026-04-26 10:42 44.04497 0.41254 38210 ft 429 kts 336°
2026-04-26 10:43 44.09977 0.37966 38207 ft 429 kts 336°
2026-04-26 10:43 44.15449 0.34677 38208 ft 428 kts 336°
2026-04-26 10:44 44.20031 0.31918 38210 ft 428 kts 336°
2026-04-26 10:44 44.25497 0.28619 38207 ft 427 kts 336°
2026-04-26 10:45 44.30954 0.25321 38199 ft 427 kts 336°
2026-04-26 10:45 44.36370 0.22039 38206 ft 427 kts 336°
2026-04-26 10:46 44.41820 0.18731 38209 ft 427 kts 336°
2026-04-26 10:46 44.47256 0.15424 38190 ft 424 kts 336°
2026-04-26 10:47 44.52667 0.12126 38204 ft 425 kts 336°
2026-04-26 10:47 44.58088 0.08814 38200 ft 425 kts 336°
2026-04-26 10:48 44.63506 0.05498 38207 ft 424 kts 336°
2026-04-26 10:48 44.68907 0.02186 38203 ft 423 kts 336°
2026-04-26 10:49 44.74305 -0.01131 38200 ft 423 kts 336°
2026-04-26 10:49 44.79705 -0.04456 38206 ft 424 kts 336°
2026-04-26 10:50 44.85112 -0.07793 38201 ft 424 kts 336°
2026-04-26 10:50 44.90518 -0.11135 38205 ft 424 kts 336°
2026-04-26 10:51 44.98618 -0.16156 38204 ft 424 kts 336°
2026-04-26 10:52 45.04022 -0.19515 38201 ft 424 kts 336°
2026-04-26 10:52 45.09429 -0.22883 38207 ft 425 kts 336°
2026-04-26 10:53 45.14838 -0.26258 38209 ft 425 kts 336°
2026-04-26 10:53 45.20240 -0.29637 38218 ft 425 kts 336°
2026-04-26 10:54 45.28339 -0.34715 38211 ft 424 kts 336°
2026-04-26 10:54 45.33737 -0.38109 38212 ft 424 kts 336°
2026-04-26 10:55 45.39094 -0.41484 38218 ft 424 kts 336°
2026-04-26 10:55 45.44486 -0.44888 38215 ft 424 kts 336°
2026-04-26 10:56 45.49874 -0.48296 38210 ft 424 kts 336°
2026-04-26 10:56 45.55260 -0.51711 38211 ft 424 kts 336°
2026-04-26 10:57 45.60651 -0.55136 38212 ft 423 kts 335°
2026-04-26 10:57 45.66026 -0.58557 38211 ft 423 kts 335°
2026-04-26 10:58 45.71400 -0.61986 38209 ft 423 kts 335°
2026-04-26 10:58 45.76777 -0.65424 38207 ft 423 kts 335°
2026-04-26 10:59 45.82152 -0.68868 38205 ft 423 kts 335°
2026-04-26 10:59 45.87524 -0.72316 38207 ft 423 kts 335°
2026-04-26 11:00 45.92889 -0.75768 38211 ft 423 kts 335°
2026-04-26 11:00 45.98257 -0.79229 38203 ft 422 kts 334°
2026-04-26 11:01 46.03626 -0.82696 38207 ft 424 kts 334°
2026-04-26 11:01 46.08969 -0.86155 38200 ft 424 kts 334°
2026-04-26 11:02 46.14349 -0.89644 38199 ft 424 kts 334°
2026-04-26 11:02 46.19727 -0.93140 38198 ft 424 kts 334°
2026-04-26 11:03 46.22513 -0.94520 38215 ft 425 kts 347°
2026-04-26 11:03 46.25411 -0.95380 38214 ft 426 kts 345°
2026-04-26 11:03 46.31205 -0.97205 38228 ft 427 kts 346°
2026-04-26 11:04 46.37012 -0.98993 38218 ft 426 kts 346°
2026-04-26 11:04 46.42823 -1.00779 38209 ft 427 kts 346°
2026-04-26 11:05 46.48635 -1.02569 38217 ft 427 kts 346°
2026-04-26 11:05 46.54446 -1.04363 38221 ft 427 kts 346°
2026-04-26 11:06 46.60263 -1.06163 38226 ft 427 kts 346°
2026-04-26 11:06 46.66080 -1.07966 38226 ft 428 kts 346°
2026-04-26 11:07 46.71901 -1.09775 38231 ft 428 kts 346°
2026-04-26 11:07 46.77724 -1.11588 38230 ft 428 kts 346°
2026-04-26 11:08 46.83545 -1.13405 38229 ft 428 kts 346°
2026-04-26 11:08 46.89366 -1.15225 38227 ft 428 kts 346°
2026-04-26 11:09 46.95186 -1.17050 38223 ft 428 kts 345°
2026-04-26 11:09 47.00974 -1.18868 38217 ft 428 kts 345°
2026-04-26 11:10 47.06799 -1.20703 38212 ft 428 kts 345°
2026-04-26 11:10 47.12665 -1.22554 38211 ft 428 kts 345°
2026-04-26 11:11 47.18456 -1.24386 38208 ft 430 kts 345°
2026-04-26 11:11 47.24366 -1.26259 38208 ft 432 kts 345°
2026-04-26 11:12 47.30196 -1.28111 38205 ft 432 kts 345°
2026-04-26 11:12 47.36067 -1.29981 38201 ft 431 kts 345°
2026-04-26 11:13 47.41935 -1.31854 38208 ft 432 kts 345°
2026-04-26 11:13 47.47811 -1.33733 38206 ft 432 kts 345°
2026-04-26 11:14 47.53686 -1.35617 38202 ft 432 kts 345°
2026-04-26 11:14 47.58570 -1.37186 38220 ft 432 kts 345°
2026-04-26 11:15 47.65439 -1.39398 38211 ft 432 kts 345°
2026-04-26 11:15 47.71334 -1.41188 38201 ft 435 kts 352°
2026-04-26 11:16 47.77395 -1.41659 38191 ft 436 kts 354°
2026-04-26 11:16 47.83461 -1.42128 38219 ft 437 kts 354°
2026-04-26 11:17 47.89536 -1.42586 38227 ft 437 kts 354°
2026-04-26 11:17 47.95608 -1.43044 38226 ft 437 kts 354°
2026-04-26 11:18 48.01689 -1.43504 38235 ft 437 kts 354°
2026-04-26 11:18 48.07771 -1.43937 38231 ft 438 kts 354°
2026-04-26 11:19 48.13860 -1.44373 38234 ft 438 kts 354°
2026-04-26 11:19 48.19950 -1.44811 38231 ft 438 kts 354°
2026-04-26 11:20 48.25011 -1.45175 38236 ft 439 kts 354°
2026-04-26 11:20 48.32101 -1.45687 38228 ft 439 kts 354°
2026-04-26 11:21 48.38201 -1.46129 38229 ft 439 kts 354°
2026-04-26 11:21 48.44304 -1.46572 38236 ft 439 kts 354°
2026-04-26 11:22 48.50414 -1.47016 38229 ft 439 kts 354°
2026-04-26 11:22 48.56501 -1.47460 37687 ft 436 kts 353°
2026-04-26 11:23 48.59537 -1.47682 36972 ft 437 kts 353°
2026-04-26 11:23 48.62562 -1.47903 36427 ft 434 kts 353°
2026-04-26 11:23 48.65563 -1.48122 36000 ft 428 kts 353°
2026-04-26 11:23 48.68523 -1.48339 35550 ft 424 kts 353°
2026-04-26 11:24 48.71463 -1.48555 35054 ft 422 kts 353°
2026-04-26 11:24 48.74392 -1.48770 34548 ft 420 kts 353°
2026-04-26 11:24 48.77306 -1.48985 34020 ft 419 kts 353°
2026-04-26 11:24 48.80211 -1.49197 33476 ft 417 kts 353°
2026-04-26 11:25 48.83100 -1.49410 32993 ft 414 kts 353°
2026-04-26 11:25 48.85965 -1.49621 32532 ft 411 kts 353°
2026-04-26 11:25 48.88809 -1.49832 32072 ft 408 kts 353°
2026-04-26 11:25 48.91595 -1.50394 31538 ft 402 kts 342°
2026-04-26 11:26 48.94320 -1.51315 31059 ft 400 kts 344°
2026-04-26 11:26 48.97035 -1.52186 30649 ft 397 kts 344°
2026-04-26 11:26 48.99731 -1.53052 30210 ft 395 kts 344°
2026-04-26 11:26 49.02411 -1.53913 29708 ft 393 kts 344°
2026-04-26 11:27 49.05078 -1.54770 29276 ft 389 kts 344°
2026-04-26 11:27 49.07715 -1.55619 28868 ft 386 kts 343°
2026-04-26 11:27 49.10333 -1.56463 28445 ft 383 kts 344°
2026-04-26 11:27 49.12933 -1.57302 28029 ft 380 kts 344°
2026-04-26 11:28 49.15510 -1.58134 27636 ft 377 kts 344°
2026-04-26 11:28 49.18073 -1.58963 27228 ft 375 kts 344°
2026-04-26 11:28 49.20584 -1.59776 26837 ft 373 kts 344°
2026-04-26 11:28 49.23110 -1.60594 26448 ft 370 kts 344°
2026-04-26 11:29 49.25625 -1.61410 26064 ft 368 kts 344°
2026-04-26 11:29 49.28128 -1.62222 25680 ft 366 kts 345°
2026-04-26 11:29 49.30614 -1.63031 25299 ft 365 kts 344°
2026-04-26 11:29 49.33095 -1.63839 24921 ft 364 kts 345°
2026-04-26 11:30 49.35563 -1.64642 24549 ft 362 kts 345°
2026-04-26 11:30 49.37229 -1.65185 24304 ft 362 kts 345°
2026-04-26 11:30 49.40481 -1.66246 23801 ft 360 kts 345°
2026-04-26 11:30 49.42930 -1.67047 23353 ft 359 kts 345°
2026-04-26 11:31 49.45369 -1.67844 22973 ft 357 kts 345°
2026-04-26 11:31 49.47792 -1.68637 22601 ft 354 kts 345°
2026-04-26 11:31 49.50195 -1.69425 22244 ft 352 kts 345°
2026-04-26 11:31 49.52582 -1.70208 21884 ft 350 kts 345°
2026-04-26 11:32 49.54184 -1.70735 21637 ft 348 kts 345°
2026-04-26 11:32 49.56549 -1.71512 21271 ft 346 kts 345°
2026-04-26 11:32 49.58866 -1.72272 20920 ft 344 kts 345°
2026-04-26 11:32 49.61216 -1.72972 20533 ft 344 kts 346°
2026-04-26 11:33 49.63562 -1.73659 20175 ft 342 kts 346°
2026-04-26 11:33 49.65890 -1.74344 19839 ft 340 kts 346°
2026-04-26 11:33 49.68235 -1.75037 19500 ft 337 kts 346°
2026-04-26 11:33 49.70529 -1.75716 19158 ft 335 kts 346°
2026-04-26 11:34 49.72786 -1.76385 18816 ft 334 kts 346°
2026-04-26 11:34 49.75095 -1.77069 18466 ft 333 kts 346°
2026-04-26 11:34 49.77335 -1.77735 18079 ft 331 kts 346°
2026-04-26 11:34 49.79621 -1.78414 17716 ft 329 kts 346°
2026-04-26 11:35 49.81859 -1.79080 17376 ft 326 kts 346°
2026-04-26 11:35 49.84079 -1.79741 17030 ft 324 kts 346°
2026-04-26 11:35 49.86276 -1.80395 16464 ft 329 kts 346°
2026-04-26 11:35 49.88522 -1.81066 16055 ft 329 kts 346°
2026-04-26 11:36 49.90759 -1.81734 15702 ft 326 kts 346°
2026-04-26 11:36 49.92982 -1.82398 15358 ft 324 kts 347°
2026-04-26 11:36 49.95191 -1.83059 15020 ft 322 kts 347°
2026-04-26 11:36 49.97383 -1.83715 14693 ft 320 kts 347°
2026-04-26 11:37 49.99564 -1.84352 14358 ft 319 kts 349°
2026-04-26 11:37 50.01785 -1.84314 13989 ft 320 kts
2026-04-26 11:37 50.03993 -1.83982 13638 ft 318 kts
2026-04-26 11:37 50.06187 -1.83674 13307 ft 315 kts
2026-04-26 11:38 50.08359 -1.83377 12981 ft 312 kts
2026-04-26 11:38 50.10511 -1.83085 12662 ft 309 kts
2026-04-26 11:38 50.12647 -1.82796 12331 ft 307 kts
2026-04-26 11:38 50.14753 -1.82328 11997 ft 307 kts 14°
2026-04-26 11:39 50.16791 -1.81386 11684 ft 304 kts 14°
2026-04-26 11:39 50.18810 -1.80454 11372 ft 302 kts 15°
2026-04-26 11:39 50.20817 -1.79542 11061 ft 299 kts 15°
2026-04-26 11:39 50.22811 -1.78640 10753 ft 297 kts 15°
2026-04-26 11:40 50.24794 -1.77746 10442 ft 296 kts 15°
2026-04-26 11:40 50.26758 -1.76860 10177 ft 292 kts 16°
2026-04-26 11:40 50.28711 -1.75979 9836 ft 291 kts 16°
2026-04-26 11:40 50.30648 -1.75104 9510 ft 289 kts 16°
2026-04-26 11:41 50.32573 -1.74235 9199 ft 287 kts 16°
2026-04-26 11:42 50.45621 -1.68320 7242 ft 268 kts 17°
2026-04-26 11:43 50.47366 -1.67526 7089 ft 261 kts 17°
2026-04-26 11:43 50.49113 -1.66995 6924 ft 254 kts 357°
2026-04-26 11:43 50.50770 -1.67799 6648 ft 251 kts 326°
2026-04-26 11:43 50.52100 -1.69541 6381 ft 248 kts 318°
2026-04-26 11:44 50.53388 -1.71322 6123 ft 246 kts 318°
2026-04-26 11:44 50.54665 -1.73095 5856 ft 244 kts 318°
2026-04-26 11:44 50.55927 -1.74852 5610 ft 241 kts 318°
2026-04-26 11:44 50.57178 -1.76598 5367 ft 239 kts 318°
2026-04-26 11:45 50.58415 -1.78326 5123 ft 236 kts 318°
2026-04-26 11:45 50.59640 -1.80041 4874 ft 234 kts 318°
2026-04-26 11:45 50.60849 -1.81736 4632 ft 231 kts 318°
2026-04-26 11:45 50.62045 -1.83413 4386 ft 229 kts 318°
2026-04-26 11:46 50.63223 -1.85065 4145 ft 225 kts 318°
2026-04-26 11:46 50.64389 -1.86703 3892 ft 226 kts 318°
2026-04-26 11:46 50.65566 -1.88356 3699 ft 227 kts 318°
2026-04-26 11:46 50.66752 -1.90025 3484 ft 230 kts 317°
2026-04-26 11:47 50.67943 -1.91701 3293 ft 226 kts 317°
2026-04-26 11:47 50.69090 -1.93314 3106 ft 217 kts 318°
2026-04-26 11:47 50.70206 -1.94886 2854 ft 213 kts 318°
2026-04-26 11:47 50.71309 -1.96440 2568 ft 211 kts 318°
2026-04-26 11:48 50.72398 -1.97974 2343 ft 207 kts 318°
2026-04-26 11:48 50.73638 -1.98989 1905 ft 204 kts 356°
2026-04-26 11:48 50.74921 -1.98558 1758 ft 174 kts 36°
2026-04-26 11:48 50.75661 -1.97268 1696 ft 153 kts 66°
2026-04-26 11:49 50.76072 -1.95742 1584 ft 151 kts 76°
2026-04-26 11:49 50.76351 -1.94171 1338 ft 144 kts 79°
2026-04-26 11:49 50.76603 -1.92670 1116 ft 140 kts 82°
2026-04-26 11:49 50.76843 -1.91200 912 ft 140 kts 79°
2026-04-26 11:50 50.77093 -1.89735 694 ft 136 kts 79°
2026-04-26 11:50 50.77333 -1.88285 468 ft 137 kts 78°
2026-04-26 11:50 50.77603 -1.86759 267 ft 151 kts 79°
2026-04-26 11:50 50.77862 -1.85145 72 ft 148 kts 81°
2026-04-26 11:51 50.78088 -1.83744 44 ft 104 kts 77°
2026-04-26 11:51 50.78214 -1.83013 46 ft 41 kts 75°
2026-04-26 11:51 50.78221 -1.82785 45 ft 6 kts 114°
2026-04-26 11:51 50.78204 -1.82749 42 ft 3 kts 158°
2026-04-26 11:52 50.78160 -1.82774 40 ft 9 kts 218°
2026-04-26 11:52 50.78134 -1.82832 41 ft 11 kts 246°
2026-04-26 11:52 50.78120 -1.82991 44 ft 11 kts 276°
2026-04-26 11:52 50.78112 -1.83109 43 ft 11 kts 247°
2026-04-26 11:53 50.78066 -1.83229 45 ft 14 kts 237°
2026-04-26 11:53 50.78017 -1.83374 44 ft 14 kts 242°
2026-04-26 11:53 50.77956 -1.83484 44 ft 15 kts 195°
2026-04-26 11:54 50.77782 -1.83463 45 ft 3 kts 175°
2026-04-26 11:54 50.77776 -1.83462 45 ft 1 kts 175°
2026-04-26 11:54 50.77758 -1.83460 45 ft 4 kts 175°
2026-04-26 11:54 50.77730 -1.83429 43 ft 7 kts 111°
2026-04-26 11:55 50.77727 -1.83376 45 ft 3 kts 88°
2026-04-26 11:55 50.77728 -1.83370 45 ft 0 kts 88°